-1 Query Result

LUMCON's Bayouside Classroom: Query Results


Try Another Query    Instructions for saving Query Results    View Delimited Text File for this Query   
UserNameUserIDGroupNumberLocationLocationIDSampleDateSampleTimeBottomTempTopTempBottomSalinityTopSalinityBottomDOTopDOBottompHToppHBottomTurbidityTopTurbidityDepth
Hbauland 87 NA DowntownMarina 41 12/14/2007  NA 23.3 NA NA 4.5 NA 8.8 NA 14.5 NA 
Hbauland 87 NA DowntownMarina 41 12/14/2007  NA 21.1 NA NA NA 5.2 NA 7.86 NA 22.2 NA 
Hbauland 87 NA DowntownMarina 41 12/14/2007 1158 NA 21.1 NA NA NA 8.08 NA 24 NA 
Hbauland 87 NA DowntownMarina 41 12/14/2007  NA 21.1 NA NA 4.4 NA 7.94 NA 25 NA 
Hbauland 87 NA DowntownMarina 41 12/14/2007  NA 22.2 NA NA NA 7.57 NA 29 NA 
Hbauland 87 NA DowntownMarina 41 12/14/2007  NA 21.7 NA NA 5.6 NA 8.06 NA 29.4 NA 
Hbauland 87 NA DowntownMarina 41 12/14/2007  NA 21.1 NA NA NA 8.01 NA 20 NA 
Hbauland 87 NA DowntownMarina 41 12/14/2007  NA 23.3 NA NA NA 8.87 NA 16 NA 
Hbauland 87 NA DowntownMarina 41 12/14/2007  NA 24.4 NA NA NA NA 7.89 NA 11.5 NA 
Hbauland 87 NA DowntownMarina 41 12/14/2007  NA 21.1 NA NA NA 7.67 NA 30 NA 
Hbauland 87 NA DowntownMarina 41 12/14/2007  NA 21.1 NA NA 6.5 NA 7.55 NA 26.4 NA 
Hbauland 87 NA DowntownMarina 41 12/14/2007  NA 18.3 NA NA NA NA 7.01 NA 25.6 NA 
Hbauland 87 NA DowntownMarina 41 2/26/2008  NA 20.55 NA NA NA NA 8.23 NA 34 NA 
Hbauland 87 NA DowntownMarina 41 2/26/2008  NA 18.33 NA NA NA NA 7.36 NA 30 NA 
Hbauland 87 NA DowntownMarina 41 2/26/2008  NA 17.8 NA NA NA NA 7.50 NA 4.4 NA 
Hbauland 87 NA DowntownMarina 41 2/26/2008  NA 17.2 NA NA NA NA 7.55 NA 40 NA 
Hbauland 87 NA DowntownMarina 41 2/26/2008  NA 21.7 NA NA NA NA 7.56 NA 40.5 NA 
Hbauland 87 NA DowntownMarina 41 2/26/2008  NA 18.3 NA NA NA NA NA NA 50 NA 
Hbauland 87 NA DowntownMarina 41 2/26/2008  NA 20.9 NA NA NA NA 7.56 NA 44 NA 
Hbauland 87 NA DowntownMarina 41 2/26/2008  NA 20 NA NA NA NA 7.74 NA 51.6 NA 
Hbauland 87 NA DowntownMarina 41 2/26/2008  NA 22.2 NA NA NA NA NA 7.31 NA 51.3 NA 
Hbauland 87 NA DowntownMarina 41 2/26/2008  NA 18.3 NA NA NA NA 7.79 NA 29.8 NA 
Hbauland 87 NA DowntownMarina 41 2/26/2008  NA 18.3 NA NA NA NA NA 32.4 NA 
Hbauland 87 NA DowntownMarina 41 2/26/2008  NA 18.3 NA NA NA NA 8.16 NA 36.8 NA 
Hbauland 87 NA DowntownMarina 41 2/26/2008  NA 21.1 NA NA NA NA NA 29.6 NA 
Hbauland 87 NA DowntownMarina 41 2/26/2008  NA 21.1 NA NA NA NA 7.4 NA 32.6 NA 
Hbauland 87 NA DowntownMarina 41 2/26/2008  NA 21.1 NA NA NA NA 7.82 NA 39.1 NA 
Hbauland 87 NA DowntownMarina 41 2/26/2008  NA 21.1 NA NA NA NA 7.68 NA 35 NA 
Hbauland 87 NA DowntownMarina 41 4/15/2008 1150 NA 21.1 NA NA NA 7.95 NA 52 NA 
Hbauland 87 NA DowntownMarina 41 4/15/2008 1035 NA 21.1 NA NA NA NA 7.8 NA NA NA 
Hbauland 87 NA DowntownMarina 41 4/15/2008  NA 21.1 NA NA NA NA 6.59 NA NA NA 
Hbauland 87 NA DowntownMarina 41 4/15/2008 1050 NA NA NA NA NA NA 20.3 NA NA NA 
Hbauland 87 NA DowntownMarina 41 4/15/2008  NA 21.1 NA NA 4.2 NA 7.85 NA 42.4 NA 
Hbauland 87 NA DowntownMarina 41 4/15/2008 1150 NA 18.3 NA NA 6.6 NA 7.70 NA 26.3 NA 
Hbauland 87 NA DowntownMarina 41 4/15/2008 1150 NA 18.3 NA NA 4.4 NA 7.67 NA 35 NA 
Hbauland 87 NA DowntownMarina 41 4/15/2008 1150 NA 18.3 NA NA NA NA 7.70 NA 30 NA 
Hbauland 87 NA DowntownMarina 41 4/15/2008  NA 22.2 NA NA NA NA 7.6 NA 40 NA 
Hbauland 87 NA DowntownMarina 41 4/15/2008 1150 NA 17.2 NA NA 4.5 NA 8.2 NA 26 NA 
Hbauland 87 NA DowntownMarina 41 4/15/2008 1150 NA 18.3 NA NA 2.8 NA 8.19 NA 41 NA